Regional Weather Roundup
Issued by NWS

Home | Current Version | Previous Version | Text Only | Print | Product List | Glossary Off
Versions: 1 2 3 4 5 6 7 8 9 10 11 12 13 14 15 16 17 18 19 20 21 22 23 24 25 26 27 28 29 30 31 32 33 34 35 36 37 38 39 40 41 42 43 44 45 46 47 48 49 50

000
ASUS43 KOAX 240310
RWRNE

WEATHER ROUNDUP FOR NEBRASKA
NATIONAL WEATHER SERVICE OMAHA NE
900 PM CST THU NOV 23 2017

NOTES: SATELLITE DATA IS BEING USED TO AUGMENT CLOUD COVER ABOVE
       12000 FEET.
       "FAIR" INDICATES FEW OR NO CLOUDS BELOW 12,000 FEET WITH NO
       SIGNIFICANT WEATHER AND/OR OBSTRUCTIONS TO VISIBILITY.


NEZ001>004-019>022-054>056-240400-
NEBRASKA PANHANDLE

CITY           SKY/WX    TMP DP  RH WIND       PRES   REMARKS
SCOTTSBLUFF    CLOUDY    45  33  63 N3        29.84F
ALLIANCE       CLEAR     47  38  71 W10       29.80F
CHADRON        CLOUDY    47  35  63 W10       29.76F
GORDON         FAIR      54  36  49 W9        29.74S
KIMBALL        CLOUDY    51  31  47 W10       29.91F
SIDNEY         CLOUDY    47  30  51 W8        29.89F
$$

NEZ057>060-069>072-079>082-240400-
SOUTHWEST NEBRASKA

CITY           SKY/WX    TMP DP  RH WIND       PRES   REMARKS
NORTH PLATTE   CLOUDY    46  37  71 VRB3      29.79F
IMPERIAL       CLOUDY    50  32  50 W9        29.84F
LEXINGTON      PTCLDY    58  40  50 SW9       29.79F
MCCOOK         CLEAR     54  39  57 SW12      29.82F
OGALLALA       CLOUDY    46  34  63 SW8       29.83F
$$

NEZ005>010-023>029-035>040-094-240400-
NORTH CENTRAL NEBRASKA

CITY           SKY/WX    TMP DP  RH WIND       PRES   REMARKS
VALENTINE      CLOUDY    51  38  60 SW12      29.69F
AINSWORTH      CLOUDY    55  40  57 SW12      29.71F
BROKEN BOW     CLOUDY    46  38  73 CALM      29.76F
O`NEILL        CLOUDY    54  43  66 SW8       29.72F
ORD            PTCLDY    50  41  71 SW7       29.74F
THEDFORD       PTCLDY    54  40  59 SW12      29.76F
$$

NEZ041-046>049-061>064-073>077-083>087-240400-
SOUTH CENTRAL NEBRASKA

CITY           SKY/WX    TMP DP  RH WIND       PRES   REMARKS
GRAND ISLAND   CLOUDY    55  42  61 S9        29.78F
AURORA         CLOUDY    55  39  56 S10       29.79F
HASTINGS       PTCLDY    55  40  56 S6        29.80F
HEBRON         CLOUDY    59  40  48 S10       29.81F
HOLDREGE       CLOUDY    55  41  60 SW8       29.80F
KEARNEY        MOCLDY    56  40  55 SW12      29.79F
YORK           CLOUDY    54  39  58 S9        29.80F
$$

NEZ011>018-030>034-042>045-240400-
NORTHEAST NEBRASKA

CITY           SKY/WX    TMP DP  RH WIND       PRES   REMARKS
NORFOLK        PTCLDY    57  41  55 S15       29.72F
ALBION         MOCLDY    57  42  57 CALM      29.76F
BLAIR          CLOUDY    53  40  59 S8        29.79F
COLUMBUS       CLOUDY    58  41  53 S10       29.77F
FREMONT        PTCLDY    58  40  50 S7        29.78F
TEKAMAH        CLOUDY    46  34  62 SE9       29.77F
WAYNE          CLOUDY    52  38  59 S5        29.72F
$$

NEZ050>053-065>068-078-088>093-240400-
SOUTHEAST NEBRASKA

CITY           SKY/WX    TMP DP  RH WIND       PRES   REMARKS
LINCOLN        MOCLDY    53  41  63 S7        29.81F
OMAHA EPPLEY   CLOUDY    50  37  61 SE12      29.80F
BEATRICE       CLOUDY    58  40  50 S10       29.82F
FALLS CITY     CLOUDY    53  37  54 S8        29.85F
NEBRASKA CITY  CLOUDY    54  40  58 S12       29.82F
PLATTSMOUTH    CLOUDY    54  40  58 S10       29.81F
$$

NEZ044-045-051>053-067-240400-
OMAHA AREA

CITY           SKY/WX    TMP DP  RH WIND       PRES   REMARKS
OMAHA EPPLEY   CLOUDY    50  37  61 SE12      29.80F
BLAIR          CLOUDY    53  40  59 S8        29.79F
FREMONT        PTCLDY    58  40  50 S7        29.78F
MILLARD        PTCLDY    51  40  66 SE5       29.80F
OFFUTT AFB     CLOUDY    49  37  64 E5        29.80F
PLATTSMOUTH    CLOUDY    54  40  58 S10       29.81F
WAHOO          FAIR      52  39  61 S5        29.79F
$$



USA.gov is the U.S. government's official web portal to all federal, state and local government web resources and services.